This demonstration page uses our WeatherBlox Daily Observations layout. Learn more.

Left ArrowRight Arrow

Hourly Observations for January 12, 2016

Temp ( °F °C ) Dew Point ( °F °C ) Humidity (%) Winds ( mph kmh ) Pressure ( in mb ) Visibility ( mi km ) Precip ( " mm )
12:51 am 00:51 Clear 30 -1.1 27 -2.8 88 88 N N/A 30.26 1025 10 16 N/A
1:51 am 01:51 Clear 29 -1.7 26 -3.3 89 89 NNW 3 6 30.25 1024 10 16 N/A
2:51 am 02:51 Clear 28 -2.2 25 -3.9 88 88 N N/A 30.25 1025 10 16 N/A
3:51 am 03:51 Clear 30 -1.1 26 -3.3 85 85 N N/A 30.25 1024 10 16 N/A
4:51 am 04:51 Clear 26 -3.3 24 -4.4 92 92 SSE 3 6 30.25 1025 10 16 N/A
5:51 am 05:51 Clear 25 -3.9 23 -5 92 92 N N/A 30.28 1025 10 16 N/A
6:51 am 06:51 Clear 26 -3.3 23 -5 88 88 N N/A 30.30 1026 10 16 N/A
7:51 am 07:51 Sunny 28 -2.2 25 -3.9 88 88 SE 6 9 30.32 1027 10 16 N/A
8:51 am 08:51 Sunny 35 1.7 27 -2.8 72 72 E 3 6 30.32 1027 10 16 N/A
9:51 am 09:51 Sunny 40 4.4 20 -6.7 45 45 ESE 13 20 30.32 1027 10 16 N/A
10:16 am 10:16 Hazy 42 5.6 22 -5.6 45 45 SSE 12 19 30.36 1028 3 4 N/A
10:29 am 10:29 Hazy 43 6.1 22 -5.6 43 43 SE 9 15 30.36 1028 2 3 N/A
10:36 am 10:36 Sunny 44 6.7 23 -5 43 43 SE 12 19 30.36 1028 10 16 N/A
10:42 am 10:42 Hazy 45 7.2 22 -5.6 40 40 ESE 9 15 30.30 1026 2 3 N/A
10:51 am 10:51 Sunny 46 7.8 22 -5.6 38 38 ESE 10 17 30.31 1027 7 11 N/A
10:55 am 10:55 Hazy 47 8.3 21 -6.1 36 36 ESE 9 15 30.30 1026 1 1 N/A
11:09 am 11:09 Sunny 48 8.9 21 -6.1 34 34 ESE 12 19 30.30 1026 N/A N/A
11:51 am 11:51 Sunny 48 8.9 23 -5 37 37 E 6 9 30.28 1025 N/A N/A
12:51 pm 12:51 Sunny 50 10 27 -2.8 41 41 SE 8 13 30.22 1023 N/A N/A
1:51 pm 13:51 Sunny 52 11.1 27 -2.8 38 38 S 6 9 30.18 1022 10 16 N/A
2:51 pm 14:51 Hazy 53 11.7 27 -2.8 37 37 SE 5 7 30.16 1021 3 5 N/A
2:58 pm 14:58 Hazy 53 11.7 27 -2.8 37 37 S 3 6 30.15 1021 2 3 N/A
3:07 pm 15:07 Sunny 54 12.2 26 -3.3 34 34 E 3 6 30.15 1021 10 16 N/A
3:51 pm 15:51 Hazy 54 12.2 26 -3.3 34 34 VRB 5 7 30.15 1021 3 4 N/A
4:21 pm 16:21 Sunny 54 12.2 26 -3.3 34 34 SSE 5 7 30.15 1021 10 16 N/A
4:51 pm 16:51 Sunny 53 11.7 26 -3.3 35 35 SSW 5 7 30.16 1021 10 16 N/A
5:51 pm 17:51 Clear 49 9.4 28 -2.2 44 44 N N/A 30.18 1022 10 16 N/A
6:51 pm 18:51 Clear 41 5 32 undefined 70 70 NNE 7 11 30.20 1023 10 16 N/A
7:51 pm 19:51 Clear 39 3.9 31 -0.6 73 73 ESE 3 6 30.20 1023 10 16 N/A
8:51 pm 20:51 Clear 39 3.9 30 -1.1 70 70 ESE 6 9 30.19 1022 10 16 N/A
9:51 pm 21:51 Clear 37 2.8 29 -1.7 73 73 E 3 6 30.19 1022 10 16 N/A
10:51 pm 22:51 Hazy 38 3.3 29 -1.7 70 70 E 10 17 30.17 1022 3 4 N/A
10:58 pm 22:58 Clear 38 3.3 29 -1.7 70 70 E 9 15 30.27 1025 10 16 N/A
11:51 pm 23:51 Clear 38 3.3 28 -2.2 68 68 E 9 15 30.17 1022 10 16 N/A

Powered by AerisWeather